Regional & State Weather Roundups


226 
ASUS43 KDTX 200701
RWRMI 
MICHIGAN HOURLY REGIONAL WEATHER ROUNDUP
NATIONAL WEATHER SERVICE DETROIT/PONTIAC MI
300 AM EDT FRI JUL 20 2018
NOTE: "FAIR" INDICATES FEW OR NO CLOUDS BELOW 12,000 FEET WITH NO
SIGNIFICANT WEATHER AND/OR OBSTRUCTION TO VISIBILITY.
MIZ047>049-052>055-059>063-066>070-074>076-081>083-200800-
SOUTHEAST LOWER MICHIGAN
  
CITY           SKY/WX    TMP DP  RH WIND       PRES   REMARKS
ADRIAN         FAIR      66  61  84 S5        29.93F                  
ANN ARBOR      FAIR      64  61  90 CALM      29.93F                  
BAD AXE        FAIR      64  55  74 SE6       29.96F                  
CARO           FAIR      63  55  74 SE6       29.94F                  
DETROIT CITY   FAIR      70  64  81 SE5       29.93F                  
DETROIT        FAIR      69  62  78 E6        29.93F                  
FLINT          FAIR      62  57  83 SE6       29.94F                  
GROSSE ILE     FAIR      68  65  90 E3        29.92F                  
HILLSDALE      FAIR      64  59  82 SE5       29.91F                  
HOWELL         FAIR      65  59  82 SE7       29.94S                  
CITY           SKY/WX    TMP DP  RH WIND       PRES   REMARKS
JACKSON        FAIR      68  64  87 E7        29.92F                  
LAMBERTVILLE   FAIR      65  62  90 CALM      29.92F                  
LANSING        FAIR      67  62  84 SE9       29.91F                  
LAPEER         FAIR      59  55  87 CALM      29.95F                  
MASON          FAIR      65  61  88 SE7       29.91F                  
MONROE         FAIR      70  62  75 CALM      29.92S                  
MT. CLEMENS    FAIR      69  66  89 E6        29.93F                  
PONTIAC        FAIR      63  60  90 E3        29.93F                  
PORT HOPE        N/A     66  58  75 S5        29.95S                  
PORT HURON     FAIR      64  55  72 E5        29.96F                  
TRI CITIES     FAIR      67  59  75 SE9       29.93F                  
MIDLAND        FAIR      67  56  68 SE7       29.91F                  
TROY           FAIR      69  63  81 CALM      29.95F                  
SAGINAW HB     FAIR      63  55  77 SE6       29.93S                  
$$
MIZ043>046-050>051-056>058-064>065-071>073-077>080-200800-
SOUTHWEST LOWER MICHIGAN
  
CITY           SKY/WX    TMP DP  RH WIND       PRES   REMARKS
BATTLE CREEK   FAIR      70  61  73 SE9       29.88F                  
BENTON HARBOR  CLOUDY    73  58  59 SE10      29.81F                  
BIG RAPIDS     MOCLDY    70  55  59 S9        29.88F                  
COLDWATER      FAIR      69  57  66 SE6       29.89F                  
HOLLAND        CLOUDY    68  62  81 E12       29.84F                  
GRAND RAPIDS   LGT RAIN  71  61  70 S8        29.88F                  
IONIA          FAIR      66  60  80 E7        29.88F                  
KALAMAZOO      MOCLDY    71  57  61 SE6       29.87F                  
LUDINGTON      CLOUDY    68  61  76 SE6       29.81F                  
MARSHALL       FAIR      68  63  85 SE7       29.89F                  
MOUNT PLEASANT MOCLDY    66  56  70 SE5       29.91S                  
MUSKEGON       CLOUDY    73  58  59 SE17      29.83S                  
SOUTH HAVEN    CLOUDY    73  58  59 SE7       29.82F                  
$$
MIZ016>042-200800-
NORTHERN LOWER MICHIGAN
  
CITY           SKY/WX    TMP DP  RH WIND       PRES   REMARKS
ALPENA         FAIR      70  58  65 S9        29.94S                  
BEAVER ISLAND  FAIR      67  61  83 SE6       29.87S                  
BELLAIRE       FAIR      70  56  60 S9        29.88F                  
CADILLAC       FAIR      67  55  64 SE8       29.90F                  
CHARLEVOIX     FAIR      67  57  69 SE8       29.90F                  
FRANKFORT      LGT RAIN  72  57  59 SE3       29.83F                  
GAYLORD        FAIR      63  57  81 SE8       29.93S                  
HARBOR SPRINGS FAIR      66  59  76 E5        29.89F                  
HOUGHTON LAKE  FAIR      61  55  81 E6        29.93F                  
MANISTEE       LGT RAIN  70  58  65 SE6       29.82F                  
OSCODA         FAIR      68  57  66 S3        29.93F                  
PELLSTON       FAIR      56  55  97 CALM      29.90F                  
ROGERS CITY    CLOUDY    67  60  78 S6        29.93S                  
TRAVERSE CITY  MOCLDY    71  57  61 SE8       29.85F                  
$$
MIZ007>008-015-200800-
EASTERN UPPER MICHIGAN
  
CITY           SKY/WX    TMP DP  RH WIND       PRES   REMARKS
KINROSS        FAIR      63  60  90 SE5       29.91F                  
MACKINAC ISLAN FAIR      69  60  74 S8        29.89F                  
NEWBERRY       FAIR      58  57  97 SE5       29.88S                  
S. S. MARIE    FAIR      63  56  78 E3        29.91S                  
MUNISING         N/A     66  58  75 CALM      29.83F                  
$$
MIZ004>006-011>014-085-200800-
CENTRAL UPPER MICHIGAN
  
CITY           SKY/WX    TMP DP  RH WIND       PRES   REMARKS
MANISTIQUE     MOCLDY    66  65  94 E8        29.84F                  
ESCANABA       MOCLDY    72  62  71 SE9       29.82F                  
MENOMINEE      LGT RAIN  69  64  84 SE10      29.80                   
$$
MIZ001>003-009>011-084-200800-
WESTERN UPPER MICHIGAN
  
CITY           SKY/WX    TMP DP  RH WIND       PRES   REMARKS
IRON MOUNTAIN  CLOUDY    67  60  78 E5        29.81F                  
HOUGHTON       MOCLDY    68  56  65 S3        29.82S                  
COPPER HARBOR    N/A     66  55  67 SW9       29.80F                  
IRONWOOD       CLOUDY    66  58  75 E6        29.80F                  
$$
ABBREVIATIONS USED IN REMARKS
   TC - TEMPERATURE IN CELSIUS
  WCI - WIND CHILL INDEX
   HX - HEAT INDEX
  VSB - VISIBILITY